Location: Dötzum
(52.0808°N, 9.8063°E)
Time: 04:01:48
(UTC+00:00)

Cosmos 1455 Rocket - Pass Details

Date: 27 May 2022
Orbit: 604 x 629 km, 82.5° (Epoch: 24 June)

Event Time Altitude Azimuth Distance (km) Brightness Sun altitude
Rises 00:32:50 0° 348° (NNW) 2,934 7.6 -14.8°
Reaches altitude 10° 00:35:06 10° 347° (NNW) 2,021 6.6 -14.7°
Maximum altitude 00:39:34 80° 262° (W) 644 3.0 -14.5°
Enters shadow 00:42:30 21° 177° (S) 1,406 4.3 -14.4°
